This is the latest recevied weather packets stored in our database for station/object KB9PMA-1. If no packets are shown the sender has not sent any weather packets the latest 10 day(s).
| Time | Temp. | Humidity | Pressure | Rain* | Wind** | Luminosity | Snow |
|---|---|---|---|---|---|---|---|
| 1777576390 | 13.33° C | 54% | 1017.3 hPa | 0 mm | - | - | - |
| 1777576090 | 13.33° C | 51% | 1017.2 hPa | 0 mm | - | - | - |
| 1777575790 | 13.33° C | 52% | 1017.2 hPa | 0 mm | - | - | - |
| 1777575490 | 13.89° C | 49% | 1017.3 hPa | 0 mm | - | - | - |
| 1777575190 | 13.89° C | 47% | 1017.3 hPa | 0 mm | - | - | - |
| 1777574890 | 14.44° C | 49% | 1017.2 hPa | 0 mm | - | - | - |
| 1777574590 | 13.89° C | 53% | 1017.3 hPa | 0 mm | - | - | - |
| 1777574290 | 13.89° C | 48% | 1017.4 hPa | 0 mm | - | - | - |
| 1777573990 | 13.89° C | 49% | 1017.3 hPa | 0 mm | - | - | - |
| 1777573690 | 13.89° C | 50% | 1017.4 hPa | 0 mm | - | - | - |
| 1777573390 | 13.89° C | 50% | 1017.4 hPa | 0 mm | - | - | - |
| 1777573090 | 13.89° C | 49% | 1017.5 hPa | 0 mm | - | - | - |
| 1777572790 | 13.89° C | 53% | 1017.5 hPa | 0 mm | - | - | - |
| 1777572490 | 13.89° C | 53% | 1017.6 hPa | 0 mm | - | - | - |
| 1777572190 | 13.89° C | 53% | 1017.5 hPa | 0 mm | - | - | - |
| 1777571890 | 13.89° C | 50% | 1017.5 hPa | 0 mm | - | - | - |
| 1777571590 | 13.89° C | 54% | 1017.5 hPa | 0 mm | - | - | - |
| 1777571290 | 13.33° C | 55% | 1017.7 hPa | 0 mm | - | - | - |
| 1777570990 | 13.33° C | 52% | 1017.7 hPa | 0 mm | - | - | - |
| 1777570690 | 13.33° C | 53% | 1017.8 hPa | 0 mm | - | - | - |
| 1777570390 | 13.33° C | 51% | 1017.9 hPa | 0 mm | - | - | - |
| 1777570090 | 13.89° C | 55% | 1017.9 hPa | 0 mm | - | - | - |
| 1777569790 | 13.33° C | 52% | 1018 hPa | 0 mm | - | - | - |
| 1777569490 | 13.33° C | 51% | 1018.1 hPa | 0 mm | - | - | - |
| 1777569190 | 12.78° C | 59% | 1018.1 hPa | 0 mm | - | - | - |
* Rain latest hour (hover to see other rain measurements)
** Current wind speed in m/s (hover to see current wind gust speed)